Theta_e
340 339 339 339 338 338 337 336 336 334 332 331 332 333 332 332 332 332 332 331 331 330 328 327 326 326 326 325 324 322 321 320 319 318 318 323 331 333 332 331 329 328 328 328 327 326 325 324 323 322 321 321 321 320 319 319 319 318 318 317 317 317 316 315 314 314 313 313 312 312 312 311 311 310 310 310 309 310 309 309 309 308 308 308 308
340 339 339 339 338 337 337 336 336 335 333 331 331 332 333 333 332 332 332 331 331 331 330 328 327 326 326 326 325 322 322 321 320 319 317 320 330 333 332 331 329 327 328 327 326 326 325 323 323 322 322 321 321 320 319 319 319 318 318 317 317 317 316 315 314 313 313 312 312 312 311 311 310 310 310 309 309 309 308 308 308 308 308 308 308
339 339 339 338 338 337 337 336 335 334 332 331 330 331 332 333 332 332 332 332 331 331 330 329 328 326 326 326 325 323 322 322 321 320 318 320 329 333 332 332 328 327 327 326 326 326 325 324 323 323 322 322 321 320 320 319 318 318 318 317 317 316 315 314 314 313 312 312 312 311 311 311 310 310 309 309 308 308 308 308 308 308 307 307 307
338 337 338 338 338 337 336 335 334 333 332 332 330 330 331 333 333 332 332 332 332 332 331 330 329 327 326 326 325 324 322 322 321 321 320 322 329 333 332 331 328 327 327 326 325 325 324 324 323 323 322 322 321 320 320 319 318 318 317 317 317 316 315 315 314 313 312 312 311 311 311 310 310 310 309 309 308 308 308 307 307 307 307 307 307
336 336 336 337 337 336 336 335 334 333 333 333 331 330 331 333 333 332 332 332 331 332 331 331 329 328 327 326 325 325 324 323 322 321 321 324 329 332 332 331 328 327 327 325 325 325 324 324 323 323 323 322 321 320 320 319 318 318 317 317 316 316 316 315 314 313 312 312 311 311 310 310 310 309 309 308 308 308 307 307 307 307 307 306 306
333 334 335 336 336 336 335 334 334 334 333 333 332 331 331 332 332 333 332 332 331 331 331 331 330 328 327 326 325 326 326 324 323 322 322 327 331 332 332 331 328 327 326 325 324 324 324 324 323 323 323 322 321 321 320 319 319 318 317 316 316 316 316 315 314 313 312 311 311 311 310 310 310 309 309 308 308 307 307 307 306 306 306 306 306
331 332 334 335 334 335 335 334 334 334 333 333 332 331 331 332 332 332 332 332 331 331 331 331 330 329 327 327 326 326 327 325 324 322 323 329 331 331 332 330 327 327 327 325 324 324 324 323 323 323 323 322 321 321 320 319 319 318 317 317 316 317 316 315 314 313 312 311 311 310 310 309 309 309 308 308 307 307 307 306 306 306 306 306 305
331 332 333 333 334 334 334 334 334 333 333 333 332 331 331 331 332 332 332 332 331 331 331 331 330 329 329 327 326 327 327 326 324 323 324 330 332 331 332 330 327 327 326 325 324 324 324 323 323 322 322 322 321 321 321 320 319 318 317 317 317 317 316 315 314 312 312 311 311 310 310 309 309 308 308 308 307 307 307 306 306 306 305 305 305
328 331 333 333 334 334 334 334 334 334 333 333 332 332 331 331 331 331 331 331 331 331 331 330 330 329 329 328 326 327 327 327 325 323 325 330 332 331 331 330 328 327 326 324 324 324 324 323 323 322 322 322 321 321 321 320 319 318 318 317 317 316 316 315 314 312 312 311 311 310 310 309 308 308 308 307 307 307 306 306 306 305 305 305 304
322 326 329 332 333 334 334 333 333 333 333 333 332 331 330 330 330 331 331 330 330 330 330 330 330 329 328 328 327 327 327 327 326 325 326 330 332 331 331 330 328 326 325 325 324 324 323 322 322 322 322 322 321 321 321 320 319 318 318 318 317 317 316 315 313 312 312 311 311 310 309 309 308 308 307 307 307 306 306 306 305 305 305 305 304
320 322 324 328 332 333 334 334 334 334 334 334 333 331 330 329 330 330 330 330 330 329 329 329 329 328 328 328 327 327 327 327 327 326 327 330 331 331 330 330 328 326 325 324 324 323 323 322 322 322 322 321 321 321 321 320 319 318 318 318 318 317 316 315 313 312 312 311 310 310 309 309 308 308 307 307 307 306 306 306 305 305 305 304 304
321 321 323 326 330 332 333 333 333 333 333 333 332 331 329 328 329 329 329 329 330 329 329 328 328 328 328 327 327 327 327 327 327 327 328 330 331 330 330 329 328 327 325 324 323 322 322 322 322 322 323 322 321 321 321 320 318 317 318 318 318 317 316 315 313 313 312 311 310 310 309 309 308 307 307 307 306 306 306 305 305 305 304 304 304
320 322 325 326 328 329 329 329 329 328 328 328 329 331 331 329 328 328 328 328 329 329 329 328 327 326 325 325 326 327 328 328 328 328 328 329 330 330 329 328 327 326 326 324 323 323 322 322 322 322 322 321 321 321 320 319 318 317 318 319 318 317 317 315 313 313 312 311 310 310 309 308 308 307 307 306 306 306 305 305 305 304 304 304 303
317 320 325 326 327 327 326 326 326 325 326 326 327 328 329 329 329 328 328 328 328 328 328 328 326 324 323 322 323 324 326 327 328 328 328 328 328 329 328 327 326 325 325 324 324 323 322 322 323 322 322 321 320 320 319 318 319 318 318 318 318 317 317 315 314 313 312 311 310 309 309 308 308 307 307 306 306 306 305 305 304 304 304 303 303
316 317 320 322 324 325 326 325 325 325 326 326 326 324 322 321 323 325 326 328 328 328 328 327 325 324 323 323 323 323 323 322 323 327 328 328 328 327 327 326 326 325 324 324 323 323 322 322 322 322 322 321 320 319 318 318 319 319 318 317 317 318 317 315 314 313 312 311 310 309 309 309 308 308 307 306 306 306 305 305 304 304 304 303 303
313 314 314 315 316 318 320 322 323 324 324 322 321 318 315 314 318 322 325 326 327 327 328 327 326 325 323 323 322 322 326 322 318 323 326 327 327 326 327 326 325 325 324 323 323 322 322 322 322 322 322 321 320 318 318 318 318 318 318 317 317 318 317 316 314 314 312 311 310 310 309 309 308 307 307 307 306 306 305 304 304 304 303 303 303
312 312 312 312 311 311 312 313 315 316 316 315 314 313 314 314 318 322 324 325 326 326 327 326 326 325 324 324 323 324 328 323 319 321 322 325 326 325 325 326 324 324 323 323 323 322 322 321 322 322 322 321 319 318 318 318 318 318 318 317 316 317 317 316 315 314 313 311 310 310 309 309 308 308 307 307 306 306 305 305 304 304 303 303 303
312 312 312 311 311 311 310 310 310 310 311 312 313 315 317 317 317 320 322 324 326 325 325 325 325 325 324 325 325 325 324 320 320 322 318 319 323 323 324 325 324 324 323 322 322 322 322 322 322 322 322 321 319 318 319 318 318 317 318 317 316 317 317 316 315 315 314 312 310 310 309 309 308 308 307 307 306 306 305 305 304 304 303 303 303
312 311 310 311 312 312 312 312 311 311 311 313 315 316 317 318 318 318 318 320 323 323 323 323 323 323 324 324 323 322 320 319 321 322 318 316 316 317 319 322 323 323 323 322 322 321 322 322 322 321 321 320 319 318 318 318 317 317 317 317 316 317 317 316 315 315 314 313 311 310 309 309 308 308 308 308 307 306 306 305 305 304 303 303 303
311 310 310 311 312 312 312 313 312 312 311 312 314 316 317 318 318 318 316 316 318 319 319 320 320 321 322 323 323 321 320 319 320 321 321 320 316 313 314 316 320 321 322 322 322 322 322 321 322 321 320 320 319 318 318 318 317 316 317 317 316 316 317 316 316 315 315 313 311 310 310 309 309 308 308 308 307 306 306 305 305 304 303 303 303
310 309 309 310 311 310 311 312 312 311 311 312 313 316 317 317 317 317 316 316 316 316 316 316 317 317 319 320 321 321 319 319 319 319 319 321 320 316 313 313 315 318 320 321 321 321 321 321 321 320 320 320 319 318 318 317 316 316 317 317 317 316 316 316 316 316 315 314 312 310 310 309 309 308 308 308 307 306 306 306 305 305 303 303 303
310 309 309 308 308 309 310 310 310 310 311 312 313 315 315 315 315 314 314 314 314 316 316 315 315 315 316 317 319 319 319 318 317 318 318 319 320 317 313 312 313 316 318 319 320 320 320 320 320 320 319 319 319 318 317 317 317 316 316 316 316 316 316 316 316 316 315 314 313 311 310 310 309 308 308 308 307 306 306 306 305 304 304 303 303
310 309 308 308 307 308 308 308 308 309 310 310 310 311 312 312 313 312 312 312 313 315 316 317 317 316 316 316 316 317 317 317 317 317 318 318 318 317 313 312 314 315 315 317 318 319 319 320 320 319 319 319 319 318 317 317 317 316 316 316 316 315 316 316 316 316 315 315 314 312 311 310 309 309 308 308 308 307 307 306 305 304 304 303 303
310 309 308 308 308 308 308 308 307 307 307 308 308 309 310 311 312 312 312 312 313 314 315 316 317 317 317 316 316 316 316 317 317 317 318 318 318 317 314 312 314 313 312 314 316 317 318 319 320 319 319 319 319 318 317 316 317 316 316 316 316 315 315 316 316 315 315 315 314 313 311 311 310 309 309 308 308 307 307 307 306 305 304 303 303
309 308 308 308 309 310 310 309 307 306 306 307 309 311 312 312 313 313 313 313 313 313 314 314 315 316 316 316 316 316 316 317 317 317 318 318 317 316 313 312 312 310 309 312 313 315 316 318 319 319 319 319 318 318 317 316 316 316 316 315 315 314 314 315 316 315 315 315 315 314 312 311 311 310 309 309 308 308 307 307 306 305 304 303 303
309 309 309 309 310 310 310 309 308 307 308 309 311 313 314 314 314 314 314 314 313 313 313 313 314 314 315 315 315 316 316 316 317 317 318 317 316 314 311 310 309 307 306 309 310 312 313 315 317 318 318 318 318 318 316 316 316 316 316 315 315 314 313 314 315 316 316 315 315 316 314 312 311 311 310 309 309 308 308 307 306 305 305 304 303
310 310 310 311 311 310 310 310 310 310 311 312 313 314 314 315 314 314 313 313 313 312 313 313 313 314 314 315 315 316 316 316 317 317 317 317 315 313 311 310 309 307 306 307 308 310 312 313 315 317 318 318 318 317 317 316 316 316 316 315 314 314 313 313 314 315 316 316 315 316 316 314 313 312 311 310 309 309 308 308 307 306 305 304 303
310 311 310 310 311 311 311 311 311 312 312 313 314 314 315 314 313 313 313 313 313 312 313 313 313 313 314 314 315 316 316 316 316 316 316 316 315 314 312 311 312 310 308 308 308 309 311 312 313 315 316 317 317 317 317 316 316 316 315 315 315 314 313 312 313 314 315 316 316 315 315 315 314 313 312 311 310 309 308 308 307 306 305 305 303
311 310 309 310 311 312 312 312 312 313 313 314 314 314 314 313 313 313 313 313 313 313 313 313 314 314 314 314 315 315 316 316 316 316 316 316 315 313 313 313 314 313 311 312 310 308 310 311 312 313 314 315 316 316 316 316 315 315 315 315 315 314 313 312 312 312 313 314 315 316 316 316 315 315 315 313 312 310 309 308 308 307 306 305 305
309 308 309 311 313 313 313 312 313 314 314 314 314 314 313 313 312 312 312 312 313 313 313 313 314 314 315 315 315 315 315 315 315 315 315 315 314 313 313 314 315 313 312 314 312 308 310 311 311 312 312 313 315 315 315 315 315 315 315 315 315 314 314 313 311 311 311 312 313 314 315 316 315 316 316 314 314 313 311 310 310 308 307 306 305
308 309 312 313 314 313 311 311 312 312 312 313 313 312 311 311 311 312 312 313 313 313 314 314 314 315 315 315 315 315 315 315 315 315 315 315 314 312 312 314 314 314 312 314 315 311 309 310 311 312 313 314 314 314 314 314 314 314 315 315 315 314 314 313 312 311 310 310 311 312 314 314 315 316 316 315 314 314 313 312 311 309 308 306 306
310 312 313 312 311 309 308 309 310 311 312 311 309 308 309 311 312 313 313 313 313 313 313 314 314 315 315 315 315 315 315 315 314 314 314 314 314 313 313 313 313 314 313 313 316 312 309 310 311 311 313 314 314 314 314 314 314 314 314 314 314 314 313 313 312 311 310 309 309 310 311 312 313 314 315 315 315 314 314 312 312 311 309 307 307
312 311 309 308 307 307 308 309 310 310 308 305 305 308 312 314 314 314 313 312 312 312 313 313 313 314 314 314 314 314 314 314 314 313 313 314 314 313 313 313 313 314 313 313 315 311 308 310 311 311 312 313 313 314 314 314 314 314 314 314 313 312 312 312 312 311 310 309 309 309 308 309 311 312 313 314 314 314 314 313 313 311 310 308 307
309 308 307 306 307 307 307 308 308 305 303 303 308 312 314 314 314 314 314 313 312 313 313 313 313 313 313 313 314 314 314 314 313 313 313 313 313 313 313 313 313 314 313 313 313 310 307 308 310 310 311 312 313 313 313 313 314 314 314 313 312 311 311 312 312 311 311 310 310 309 308 307 308 310 311 312 312 313 313 313 313 312 310 308 307
306 306 306 306 306 306 306 306 303 302 304 308 312 313 314 314 314 313 313 312 312 313 313 313 313 313 313 313 313 314 314 314 314 314 313 313 314 314 313 313 313 314 314 314 313 310 307 307 309 310 311 311 313 314 314 313 313 313 313 313 312 311 311 311 311 311 311 310 310 309 309 308 307 308 309 309 311 311 311 312 312 311 310 309 307
306 305 305 305 306 305 305 303 301 304 309 312 313 313 314 314 312 312 312 312 312 313 313 313 313 313 313 313 313 313 313 313 314 314 314 314 314 314 313 313 313 313 313 313 313 311 309 308 308 310 311 312 312 312 312 312 311 311 312 312 311 311 311 310 310 310 310 310 310 309 309 308 308 307 307 307 308 309 310 310 311 311 311 309 308
305 305 305 306 304 304 303 302 303 308 312 313 314 314 314 313 312 312 312 311 312 313 313 313 312 312 312 312 313 313 313 313 313 313 314 314 314 313 313 313 313 313 313 313 312 311 310 309 308 308 309 310 310 310 311 311 310 310 310 310 310 310 310 309 309 310 310 309 309 308 308 308 308 307 307 307 307 307 308 309 310 310 310 310 309
305 305 305 304 303 303 303 303 305 310 313 314 314 314 314 314 313 312 312 312 312 312 313 313 312 312 312 312 313 313 313 313 313 313 313 313 313 312 312 312 312 312 312 312 312 311 311 310 308 307 308 308 308 308 309 309 310 309 309 308 309 309 309 308 309 309 309 308 308 307 307 307 307 307 307 307 307 307 307 307 307 308 309 309 309
305 304 304 302 303 304 304 304 308 312 314 315 315 314 315 315 314 313 312 312 312 312 313 312 312 312 312 312 312 313 313 314 314 314 313 313 313 312 312 312 312 312 312 311 311 311 310 309 307 307 307 306 306 307 307 307 307 307 308 307 307 308 308 309 309 309 309 308 308 307 307 306 306 306 306 306 306 306 306 306 306 306 307 308 308
303 302 300 301 305 305 304 306 311 313 314 315 316 315 315 315 315 314 313 313 312 313 313 312 312 312 312 311 311 312 313 314 314 314 314 313 313 312 312 312 312 312 312 311 311 310 309 308 306 306 305 304 304 304 304 304 304 305 307 307 307 308 308 308 309 309 308 308 308 307 307 306 306 306 305 305 305 305 305 305 305 305 305 306 307
300 300 299 302 306 305 303 307 312 313 314 316 316 316 316 315 315 315 314 314 313 313 313 313 313 312 312 312 311 312 313 313 314 314 314 314 314 313 312 312 312 312 311 311 310 308 308 307 305 304 303 302 302 302 302 303 304 306 307 306 306 306 307 306 307 307 307 307 306 306 306 305 305 305 305 305 305 305 305 304 304 304 304 304 305
299 299 301 304 306 303 302 308 312 313 314 315 315 316 316 316 316 315 315 314 313 313 313 312 312 312 312 312 312 312 313 313 314 314 314 314 314 314 314 313 312 312 311 310 309 308 307 306 304 303 301 300 301 302 303 305 305 305 305 304 304 304 303 303 304 304 305 304 304 304 305 304 303 304 303 303 304 303 303 303 303 303 304 303 304
299 301 303 305 305 302 303 308 312 313 314 315 315 316 316 316 316 315 315 315 314 313 313 312 312 312 312 312 312 312 312 313 313 313 314 314 314 314 314 314 314 314 313 311 308 308 308 306 304 303 302 301 302 304 304 304 304 303 303 303 303 302 301 300 301 302 303 303 302 303 303 302 302 302 302 302 302 302 302 302 302 302 302 302 302
300 302 304 305 304 302 303 307 310 312 313 314 314 315 315 316 315 315 315 315 314 314 313 312 312 312 312 312 312 312 313 313 313 313 313 313 313 313 314 314 315 315 315 314 312 310 309 307 304 304 304 304 304 304 305 305 305 303 302 302 302 302 300 299 300 301 301 302 302 302 302 302 301 301 302 302 302 301 300 300 300 300 300 300 301
301 303 304 305 304 303 303 306 308 309 311 312 313 314 314 315 315 314 314 314 314 314 313 312 312 312 311 311 311 312 312 312 313 313 312 312 312 312 313 314 314 313 313 314 314 314 313 311 308 306 308 307 306 307 309 308 306 303 301 301 301 301 300 300 300 300 300 300 301 300 301 301 301 301 302 302 300 300 299 299 299 298 298 299 299
301 302 304 305 305 303 303 304 306 308 309 310 311 313 313 314 314 314 313 313 313 313 312 312 312 311 311 311 311 311 311 312 312 312 312 312 312 312 312 312 313 312 312 312 313 313 313 313 311 310 311 310 309 311 311 309 307 305 304 303 302 301 300 300 300 299 299 299 299 299 299 300 300 300 301 300 299 299 298 298 297 297 297 297 298
301 301 302 303 304 303 302 302 304 307 309 309 310 311 312 313 314 313 313 313 313 312 312 312 312 311 311 311 311 311 312 312 312 312 312 312 312 312 311 311 311 311 311 311 312 312 312 312 312 312 311 310 310 310 310 309 308 307 306 306 305 303 301 299 299 298 298 298 298 297 298 299 300 299 299 298 298 297 297 296 296 296 296 296 297
301 301 301 302 303 302 301 301 302 303 306 308 309 310 312 312 313 313 312 312 312 312 312 312 311 311 311 311 311 311 312 312 312 312 312 312 312 311 311 311 311 311 311 311 311 311 311 311 311 310 310 309 309 309 308 308 307 306 305 303 302 301 299 297 296 296 297 297 297 297 297 298 298 298 297 297 296 296 296 295 294 294 295 296 296
301 301 301 301 302 301 301 301 300 300 303 307 308 309 311 312 312 313 312 312 312 312 312 311 311 311 311 311 311 311 311 312 312 312 312 312 312 311 311 311 310 310 310 310 310 310 310 310 309 309 309 308 308 308 307 307 306 305 304 301 300 300 298 296 295 295 296 297 298 297 296 296 296 296 295 294 294 294 294 293 293 293 294 295 296
301 301 301 301 301 301 300 300 300 299 300 304 307 308 309 311 312 313 312 311 311 311 311 311 311 311 311 311 311 311 311 311 311 311 311 311 311 311 311 310 309 309 310 310 310 309 309 308 308 308 308 307 307 307 307 307 306 305 304 303 302 300 298 297 296 295 295 297 298 296 295 294 295 295 294 292 291 291 292 291 292 292 294 294 294
301 301 301 300 301 301 300 300 300 299 298 300 304 307 308 310 312 312 312 311 311 310 310 310 310 310 310 310 310 310 310 311 311 311 311 311 311 311 310 309 308 309 310 310 309 309 308 308 308 307 307 307 307 306 306 306 305 305 305 304 303 301 300 299 298 296 296 298 299 297 295 294 294 294 293 292 291 290 290 290 291 292 293 293 293
Wind_Speed
30 29 29 29 29 28 28 28 27 26 27 28 28 28 28 27 27 27 27 27 26 25 24 23 21 20 21 22 22 23 21 20 20 20 21 19 18 24 28 27 25 24 25 23 20 21 21 20 21 21 21 20 20 19 19 19 18 18 18 17 17 17 17 16 15 15 14 14 14 15 15 15 14 14 13 13 12 12 12 11 11 11 11 11 11
31 30 30 30 29 29 29 29 28 28 28 29 30 30 30 30 29 29 29 29 29 28 26 25 24 22 22 23 23 23 22 21 21 21 22 21 19 24 29 28 26 26 27 25 22 22 21 21 22 22 22 21 21 20 20 19 19 19 18 17 17 17 16 16 16 15 15 14 14 14 14 14 14 14 13 13 12 11 11 11 11 11 10 10 10
30 30 31 30 30 30 29 29 29 29 29 30 31 31 31 32 32 32 31 31 30 30 29 28 27 25 23 23 23 23 23 22 22 23 24 23 21 25 30 29 29 29 28 26 25 22 21 21 21 22 22 21 21 21 21 20 19 19 18 18 18 17 16 16 16 15 15 14 13 13 13 14 14 14 13 12 12 11 11 11 10 10 10 10 10
31 30 30 31 31 31 30 30 30 29 29 29 30 31 32 32 33 32 32 31 31 31 31 30 29 28 25 24 23 23 25 25 24 24 25 24 23 26 30 31 31 31 29 28 27 25 24 23 22 22 22 21 21 21 21 21 20 19 19 18 18 17 16 16 16 15 15 15 14 13 13 13 13 13 13 12 12 11 11 10 10 10 9 9 9
31 31 30 31 31 30 31 31 30 30 29 29 30 32 32 32 32 32 32 31 31 31 31 31 31 30 28 26 24 24 26 27 26 26 27 26 25 27 30 33 33 31 29 29 29 28 27 26 24 22 22 22 21 21 21 21 21 20 20 19 18 18 17 16 16 15 15 15 14 13 13 13 13 13 13 12 12 11 11 10 10 10 9 9 9
29 29 30 31 30 30 30 31 32 31 29 29 30 31 32 32 32 31 32 31 31 32 32 32 32 30 28 28 27 26 27 28 27 27 28 27 27 28 31 34 34 33 31 30 30 30 29 28 26 25 24 23 22 22 22 22 21 21 21 20 19 18 18 17 16 15 15 15 15 14 13 13 12 12 13 12 11 11 11 10 10 10 9 9 8
27 27 28 29 30 29 30 31 31 31 30 30 30 31 32 33 32 31 30 31 31 32 32 33 32 31 30 29 29 28 28 29 29 29 29 29 29 29 32 35 35 35 34 32 31 30 30 30 29 28 26 25 24 23 23 23 22 22 21 21 20 20 19 18 17 16 16 15 15 14 13 13 12 12 12 12 11 11 11 10 10 9 9 9 8
26 26 27 28 29 29 30 29 29 30 32 32 31 31 32 33 33 32 30 30 32 32 32 33 33 33 32 31 30 30 30 30 30 31 30 31 32 31 33 36 36 35 36 35 33 31 31 31 31 30 28 27 26 25 25 24 23 22 22 22 21 21 19 18 18 17 16 15 15 15 14 13 13 12 12 12 11 11 11 10 10 9 9 9 8
26 26 27 28 29 29 29 29 29 29 30 31 32 33 33 33 34 34 33 32 33 32 32 32 33 34 34 33 31 31 33 33 32 32 32 33 35 34 35 37 36 35 36 36 35 34 33 31 31 30 29 28 27 26 26 25 24 24 23 23 22 21 20 19 18 18 16 16 16 15 14 13 13 13 12 12 12 12 11 10 10 10 9 9 8
28 27 27 28 29 29 29 29 29 29 30 31 33 34 33 33 33 34 35 34 33 33 33 33 34 33 33 34 34 34 35 35 34 32 32 35 36 36 36 38 38 35 37 38 37 37 35 32 30 29 29 29 28 28 26 26 26 25 24 23 22 22 21 20 19 18 17 17 16 16 15 14 13 13 12 12 12 12 11 11 10 10 9 8 8
29 28 27 27 28 29 28 28 29 30 30 30 31 33 33 33 32 32 34 34 34 34 34 34 32 32 34 35 36 37 37 36 35 33 33 36 37 37 36 39 41 38 38 39 37 38 37 33 31 30 30 30 29 29 28 27 26 24 23 23 23 23 22 22 21 19 19 18 17 16 15 14 14 14 13 12 12 12 11 11 10 9 9 8 8
28 28 27 27 27 28 27 26 27 28 29 30 30 30 31 33 33 32 31 32 34 34 33 32 31 31 33 35 36 36 37 37 36 35 35 36 37 38 38 40 42 42 41 40 37 37 36 35 34 33 33 33 33 32 30 28 26 24 25 25 24 23 23 23 22 20 19 18 18 17 16 15 14 14 13 13 13 12 12 11 10 10 9 9 8
29 28 27 28 27 27 26 25 25 26 27 29 29 28 27 29 30 30 29 28 29 30 31 32 28 24 23 26 31 34 36 38 37 37 37 38 38 37 38 40 42 43 44 43 42 39 37 37 36 36 36 36 36 34 30 28 26 26 26 26 24 23 23 23 22 21 19 19 18 17 16 16 15 15 14 13 13 13 12 11 11 10 9 9 9
30 29 29 29 28 27 26 26 26 26 26 25 25 25 24 25 26 27 26 25 25 24 27 29 24 21 17 14 17 23 29 33 36 38 39 39 40 39 39 41 42 43 44 44 44 42 40 40 39 39 39 37 37 35 31 29 28 27 27 26 25 24 23 22 21 21 19 19 19 18 17 17 17 16 15 14 14 13 12 12 11 11 10 10 9
32 31 31 30 29 28 27 27 27 27 26 24 24 24 23 23 23 23 22 22 22 21 23 25 23 20 14 8 5 8 13 18 26 35 39 39 40 41 41 41 43 43 43 43 44 44 43 43 42 42 41 39 38 35 32 31 30 30 28 27 26 25 24 22 21 20 19 19 19 18 18 18 17 16 15 15 14 14 13 13 12 11 11 11 10
33 32 32 31 30 29 29 28 28 27 26 26 26 26 25 23 22 22 22 20 20 20 22 25 26 20 9 2 1 3 6 7 13 25 35 38 37 39 41 41 42 43 43 44 46 46 45 44 43 44 44 41 38 35 34 34 33 32 30 29 27 25 24 23 22 21 20 20 19 18 18 18 17 17 16 16 15 14 14 13 13 12 12 11 11
32 32 31 30 29 29 29 29 29 28 27 26 26 25 23 22 22 23 24 23 21 21 21 25 30 28 17 6 2 2 4 4 8 15 27 36 37 37 40 42 44 45 45 45 46 46 46 46 45 45 45 42 39 37 36 36 35 34 32 30 29 26 24 23 23 21 20 20 19 19 18 18 17 17 17 16 16 15 15 14 13 12 12 11 11
32 31 30 29 28 28 28 27 27 26 26 25 25 24 23 23 22 23 25 26 24 20 20 23 28 32 30 21 12 6 2 5 6 5 13 28 34 35 39 43 46 46 46 46 45 46 46 46 46 45 45 43 40 39 39 38 38 36 34 32 29 27 25 24 23 22 21 20 20 19 19 18 18 18 18 17 17 16 15 14 14 13 12 12 11
32 31 29 28 28 27 27 26 24 24 24 25 25 25 25 24 23 23 23 25 26 23 22 24 26 29 34 33 26 16 7 7 6 2 4 12 20 26 31 36 42 45 48 49 47 46 47 47 47 46 45 44 42 42 41 41 39 37 35 34 31 28 26 24 23 22 21 21 20 20 20 19 19 18 18 18 17 16 15 15 14 13 13 12 12
33 31 29 28 28 27 26 25 24 23 24 25 26 25 25 24 23 24 23 24 26 26 26 26 24 26 30 33 31 24 14 11 11 10 5 3 7 12 18 25 32 38 44 47 49 48 47 48 47 47 46 45 45 44 44 42 40 39 37 35 33 29 27 26 24 23 22 21 20 20 21 20 20 18 18 18 17 16 16 15 14 14 13 13 12
34 32 30 29 28 28 26 25 24 24 25 25 26 26 25 25 25 25 25 25 26 26 27 27 26 27 27 27 28 26 19 14 16 17 10 5 5 5 11 15 18 27 35 39 44 48 48 47 47 46 45 46 46 44 44 42 41 40 38 37 34 30 28 27 25 24 24 22 21 21 21 21 20 19 19 18 18 17 16 16 15 14 14 14 14
35 33 32 31 29 28 27 26 25 25 26 27 27 28 28 28 28 27 27 26 27 27 28 28 28 28 27 25 24 22 17 11 13 16 12 8 7 6 11 13 12 21 33 36 40 45 46 46 45 44 44 45 44 43 44 44 43 42 40 38 36 32 28 28 27 26 24 24 23 22 22 21 20 19 19 19 19 18 18 17 17 16 15 15 15
36 34 33 31 30 29 27 26 26 26 28 28 29 30 30 31 30 29 28 28 28 28 28 28 27 27 27 27 26 24 21 15 14 18 14 8 6 5 11 17 15 17 26 31 36 40 43 45 45 43 43 45 45 44 45 45 43 42 40 38 36 33 29 27 28 27 26 26 26 24 23 22 21 21 21 21 20 19 19 18 18 17 16 16 16
36 35 34 33 31 30 28 27 27 28 29 29 30 30 30 31 30 29 29 29 29 28 27 28 28 27 28 29 29 29 29 26 24 24 22 19 14 6 9 17 12 10 18 23 27 33 39 44 46 45 44 44 45 45 45 44 44 42 40 38 36 34 31 28 28 29 28 27 27 27 25 23 22 22 23 22 22 21 20 19 19 18 18 17 16
37 36 35 34 33 31 30 29 29 29 29 29 29 29 29 29 29 30 30 30 30 28 28 28 29 30 30 30 31 31 31 31 30 28 28 27 21 10 9 15 10 6 13 19 20 24 31 39 44 45 44 43 45 46 45 44 43 42 40 39 38 37 34 31 29 29 28 29 29 28 27 26 25 25 24 24 24 23 22 21 20 20 19 18 18
38 37 35 33 33 31 30 29 29 29 28 28 28 28 28 29 30 31 31 32 31 29 29 30 30 31 31 31 32 32 33 32 32 31 30 28 23 15 11 10 7 6 9 14 18 18 21 30 38 42 43 43 44 46 46 45 43 42 41 41 40 38 36 34 32 29 29 29 29 28 28 28 27 26 25 25 25 24 24 24 22 21 21 20 19
38 35 34 33 31 30 28 27 27 27 27 27 28 28 29 30 30 31 31 32 30 30 31 31 32 33 33 33 32 32 33 33 33 33 32 30 27 25 20 9 4 3 2 6 12 14 17 24 32 38 41 43 44 46 46 45 44 43 43 42 41 38 37 37 35 31 29 29 28 28 28 28 28 27 26 26 26 26 25 25 24 23 22 22 21
36 34 32 31 29 28 27 26 26 26 27 27 28 29 30 30 30 30 31 30 29 30 31 31 33 33 34 34 33 33 34 34 34 33 33 34 31 30 32 21 10 4 2 3 5 9 16 21 26 33 39 42 43 44 44 44 45 45 44 43 42 40 38 39 38 34 31 29 28 27 28 29 30 28 27 28 28 28 27 26 26 25 24 24 23
34 33 32 30 28 27 26 26 26 27 28 28 29 29 29 29 29 29 31 30 29 30 31 31 32 33 33 35 34 34 34 33 33 32 33 35 34 32 35 32 22 10 5 6 6 8 15 22 25 29 36 39 41 42 42 44 46 44 43 43 42 41 40 40 39 37 34 32 30 29 28 30 31 30 28 28 29 29 29 27 27 27 25 25 24
34 33 31 29 28 27 26 26 27 28 28 29 29 29 28 29 29 30 30 29 29 31 32 31 32 32 32 34 33 33 33 32 32 33 33 34 33 32 36 37 31 19 10 8 8 14 21 24 27 30 33 36 38 40 42 42 42 42 42 44 43 42 41 40 39 39 37 35 33 31 29 29 32 32 29 30 30 29 29 28 28 28 26 24 24
34 32 31 29 28 27 27 27 27 28 28 29 29 29 29 29 29 28 27 26 27 29 29 29 29 29 30 31 31 31 31 31 31 33 34 34 32 31 33 35 31 24 20 13 6 14 26 29 30 32 34 37 38 38 38 39 39 40 42 43 43 42 42 41 39 39 39 38 36 34 32 31 32 30 29 32 32 30 28 28 29 30 28 26 25
34 32 31 30 29 28 28 28 29 29 29 30 31 29 27 25 24 24 24 24 25 25 25 25 26 27 27 28 28 28 29 30 30 30 31 33 33 31 31 32 30 26 26 19 7 10 24 31 31 30 31 36 39 36 36 38 38 40 41 42 42 42 42 41 40 39 39 40 39 37 36 35 33 31 29 32 32 29 28 28 30 31 29 28 26
34 32 31 30 29 29 28 29 29 29 30 30 28 24 21 21 21 21 21 20 20 20 21 23 24 26 26 27 28 28 28 28 28 27 27 29 31 31 32 33 32 29 27 22 11 8 16 23 26 27 28 30 35 37 38 38 38 40 40 41 41 41 42 42 41 40 39 39 40 40 39 37 36 35 32 32 31 29 29 28 29 31 31 29 28
33 32 31 30 29 28 28 28 28 28 28 26 22 20 20 20 20 19 18 17 17 17 19 23 25 26 26 27 28 28 27 27 26 26 27 29 30 31 31 30 31 31 30 28 18 11 13 17 21 25 27 27 31 36 38 39 40 41 41 42 41 41 42 42 41 41 40 39 40 42 42 39 39 39 37 35 33 32 31 29 28 30 32 32 31
32 31 30 30 29 28 28 28 27 26 23 21 19 19 20 20 19 17 16 16 16 18 21 24 25 25 25 25 26 26 25 25 25 26 28 29 31 31 30 30 31 33 33 30 22 14 15 17 19 23 26 28 31 34 37 40 40 40 41 42 42 41 41 41 42 42 41 40 40 41 42 42 42 42 40 39 37 35 34 33 31 31 32 34 33
32 31 30 28 27 27 26 26 24 22 20 19 19 19 20 19 18 17 14 13 15 18 22 23 24 24 24 24 24 23 24 24 24 26 27 29 31 32 32 32 32 32 32 29 24 20 18 17 17 22 25 28 30 32 35 37 36 37 39 40 40 40 40 40 41 42 41 41 41 41 42 43 44 44 43 41 41 39 37 35 35 34 34 35 34
31 30 29 27 26 26 25 24 22 20 20 20 19 19 19 19 17 15 13 13 15 18 20 22 23 23 22 22 22 21 22 23 23 25 27 28 31 32 32 32 32 30 30 28 25 23 21 20 19 20 22 25 28 30 32 34 35 35 35 36 37 38 38 38 39 41 41 41 41 41 41 41 42 44 44 44 43 42 41 38 36 35 35 36 36
31 30 29 27 26 25 24 22 21 20 20 20 19 19 20 19 16 14 13 14 16 17 19 22 22 23 22 21 22 22 23 25 25 25 26 28 30 31 31 30 30 29 29 28 26 23 22 22 21 21 22 24 26 27 29 32 34 35 34 33 34 35 36 37 39 40 41 41 41 40 40 40 40 41 43 44 45 44 44 41 38 36 36 36 36
30 29 28 26 26 25 24 21 20 20 20 20 19 19 19 19 17 15 14 15 16 18 20 21 22 23 22 22 22 24 25 27 27 27 27 28 30 31 32 30 29 28 28 28 27 24 22 21 20 21 22 24 24 24 26 28 29 31 32 31 32 35 37 38 40 41 40 40 40 39 39 39 38 40 40 41 42 43 42 41 39 37 36 36 35
30 29 28 26 26 25 22 21 20 20 20 20 20 19 19 19 18 16 15 16 17 19 20 21 22 22 22 22 23 25 26 27 28 28 29 29 30 30 30 30 30 29 29 29 27 25 23 22 20 20 21 21 22 21 21 22 23 27 32 32 32 35 37 38 40 40 39 40 40 40 40 39 39 39 39 39 40 40 39 38 38 38 38 37 34
28 27 26 26 26 24 22 21 21 21 21 21 20 19 19 19 19 18 17 17 18 20 21 21 21 22 22 23 24 25 26 26 27 28 29 30 31 31 31 31 30 29 28 28 27 26 24 21 18 18 19 19 21 22 21 24 27 29 31 32 32 32 31 32 35 36 36 37 37 38 38 37 37 38 37 38 40 39 38 38 38 37 38 38 36
27 26 25 26 25 23 22 23 22 21 21 21 20 19 19 18 18 18 18 19 20 20 21 21 21 22 22 23 24 24 25 25 26 27 28 30 32 34 36 35 33 31 30 29 29 28 26 23 21 21 19 19 23 27 27 28 30 28 26 27 29 27 24 23 26 28 30 30 30 33 34 32 31 32 32 33 34 34 35 36 36 36 35 35 33
27 26 25 25 24 22 21 23 23 22 22 21 20 19 18 18 18 18 18 19 20 20 20 20 21 21 22 23 24 24 24 25 25 26 27 30 32 34 35 35 34 33 33 32 31 30 28 25 23 24 23 22 25 29 28 27 27 26 24 24 25 24 20 17 16 17 19 20 20 23 24 21 20 21 21 21 22 23 26 27 29 30 31 31 29
27 26 25 25 24 22 21 22 23 22 22 21 20 19 18 18 18 18 18 19 19 20 20 20 20 21 22 22 23 24 25 25 26 26 27 29 30 32 32 32 32 33 33 32 31 30 30 27 25 25 26 25 26 28 28 27 26 26 24 22 23 23 22 20 17 13 11 10 10 11 13 12 11 12 13 13 13 15 17 18 20 22 25 26 26
27 26 26 25 25 23 22 22 22 22 21 20 19 18 18 17 16 17 18 18 18 19 20 20 20 21 22 22 22 23 24 25 26 27 27 26 26 27 27 28 30 30 31 31 28 27 29 29 29 29 30 29 27 28 29 29 27 25 24 23 23 23 22 22 21 16 11 9 7 8 11 12 10 11 12 11 11 13 14 14 15 17 18 20 22
28 27 27 27 26 25 24 23 23 22 21 19 18 18 18 17 15 16 17 18 17 19 20 20 20 21 22 22 22 22 23 24 25 26 26 26 25 25 24 24 26 28 29 29 28 26 26 28 28 29 30 29 27 26 26 26 26 24 24 24 24 24 23 22 19 16 13 12 9 8 9 11 10 10 12 11 12 13 13 12 13 14 14 15 17
29 29 29 28 28 26 25 24 23 23 22 20 19 18 18 17 14 14 16 17 17 18 19 19 19 20 21 22 23 23 23 23 24 24 25 27 27 25 23 23 25 26 27 27 27 26 25 25 24 24 23 23 24 23 21 21 22 22 21 21 20 20 20 18 15 14 13 13 11 9 8 9 9 9 11 12 12 12 12 12 11 11 10 11 13
29 29 29 29 28 27 26 25 24 24 23 22 21 19 18 17 15 14 16 18 18 19 19 19 19 20 20 22 23 24 24 23 24 24 25 26 26 25 24 24 24 25 26 26 25 24 23 22 20 18 17 16 17 17 17 16 17 19 19 16 15 15 15 14 13 14 14 13 13 12 10 9 10 10 11 12 12 12 11 11 9 8 7 6 9
30 30 31 30 29 28 27 26 26 25 24 23 22 21 20 19 17 16 17 19 20 20 19 19 19 19 20 21 22 24 25 25 25 25 25 25 25 24 24 24 24 24 25 24 23 22 22 21 19 17 15 13 12 12 13 13 14 16 18 17 15 16 16 13 10 13 14 14 14 14 12 10 10 11 11 11 10 10 9 8 7 6 5 4 7
32 32 32 30 29 28 27 27 26 26 25 25 24 23 22 21 19 18 19 20 21 21 20 20 20 20 20 20 21 23 24 25 26 26 26 25 24 25 25 24 24 25 25 24 23 23 22 20 18 17 15 14 13 13 13 14 14 16 17 17 17 18 18 15 11 11 12 14 16 15 12 10 10 11 10 7 6 7 6 6 5 4 3 5 9
31 31 30 29 29 28 27 27 26 25 25 25 26 25 23 23 22 20 20 22 22 22 22 21 20 20 20 20 20 21 23 23 24 25 25 25 25 26 26 25 25 26 26 25 24 24 23 21 20 19 18 17 16 16 16 16 16 16 16 17 17 18 18 18 15 9 5 9 15 17 15 11 10 11 9 4 2 3 4 4 3 4 7 10 11
Wind_Direction
232 233 233 232 232 232 232 231 229 230 227 222 222 222 222 222 222 222 223 226 228 228 228 227 226 222 220 220 221 221 219 217 215 218 217 215 217 205 190 184 186 183 180 182 181 180 180 178 173 169 171 170 168 165 164 163 161 160 159 158 156 152 149 148 146 145 144 143 142 141 140 140 139 138 137 134 133 130 128 127 125 122 121 118 116
232 233 233 233 232 232 232 232 230 231 229 224 223 223 223 222 222 223 223 225 227 229 228 229 228 225 222 222 223 225 223 221 219 219 218 216 215 207 195 189 186 183 185 185 183 182 182 183 178 171 172 172 170 169 167 166 164 163 162 161 161 157 153 151 150 148 147 147 146 145 145 144 142 142 140 138 137 135 133 131 129 127 125 122 120
233 232 232 232 231 232 232 232 231 230 229 227 224 224 225 224 224 224 224 225 227 228 229 230 230 228 225 223 224 226 227 226 223 221 218 215 215 209 201 194 187 187 189 185 182 183 182 183 181 175 174 173 173 172 171 169 167 167 165 163 163 159 156 155 153 151 150 150 150 150 150 149 147 146 144 142 141 139 138 136 134 132 129 126 124
233 233 231 230 230 231 232 232 232 231 229 228 227 227 226 226 227 226 226 226 227 228 230 231 230 229 227 225 224 226 228 228 226 222 217 214 214 212 206 198 192 191 191 186 183 183 183 184 183 179 177 176 176 175 173 172 170 169 168 166 164 162 160 160 157 155 155 153 154 155 155 155 153 151 148 146 145 144 142 140 139 137 133 131 129
234 233 231 230 229 229 230 232 234 233 231 229 228 227 225 225 225 225 225 225 225 228 229 230 230 229 228 228 226 227 229 229 227 223 217 215 213 213 209 202 197 195 192 190 187 184 183 184 183 181 180 179 180 180 178 175 174 171 171 170 168 166 163 164 162 159 159 158 158 159 160 160 157 156 154 150 149 148 147 145 144 142 139 137 135
230 230 231 230 229 227 227 229 233 235 234 232 228 225 223 223 223 221 221 222 223 226 227 228 230 229 228 230 229 228 228 229 229 225 217 213 212 212 210 203 198 197 195 194 191 188 186 183 183 184 182 182 183 185 183 179 177 175 174 173 171 168 166 167 167 165 164 163 163 163 165 166 163 162 159 156 153 152 152 150 150 147 146 144 141
226 227 229 230 230 228 226 226 228 232 235 235 232 226 223 223 223 220 218 220 222 225 227 227 229 230 230 230 231 229 226 228 228 224 218 212 212 211 210 206 198 197 196 196 195 193 191 184 183 185 183 185 187 187 187 183 180 178 176 176 174 171 168 170 171 170 169 168 168 168 168 170 170 168 164 160 157 157 156 155 156 154 153 152 148
225 225 227 229 230 229 228 227 227 228 231 233 233 230 225 222 222 221 219 219 222 224 225 227 228 230 232 232 231 229 226 227 227 223 216 211 211 210 210 208 201 197 196 195 195 194 194 188 185 187 185 187 190 189 189 185 182 181 180 180 177 174 171 171 173 174 173 172 173 172 171 174 175 173 168 165 163 161 160 160 161 161 162 160 156
224 224 225 228 229 228 228 228 229 229 229 230 232 231 226 220 220 222 222 222 223 224 224 225 227 228 230 231 230 228 225 225 225 221 214 209 209 208 209 207 202 198 196 195 193 192 195 194 191 191 188 189 191 191 191 187 184 184 184 183 179 177 174 175 178 177 175 176 178 177 176 176 179 178 173 171 169 166 166 165 166 166 167 166 164
224 223 223 226 228 229 228 228 229 231 232 231 231 231 226 221 219 220 222 223 223 223 224 225 225 225 226 228 229 227 225 224 223 218 211 208 208 207 207 206 203 199 196 196 194 194 196 196 194 194 192 192 193 194 192 189 187 186 186 186 182 180 177 178 181 179 178 179 182 183 181 181 183 182 178 176 174 171 171 169 170 172 171 172 170
224 224 223 224 225 228 229 229 228 228 229 230 230 227 225 223 221 221 223 223 225 226 226 225 224 223 225 227 227 225 223 220 220 216 211 209 209 207 207 206 204 200 196 196 195 193 192 193 194 194 195 195 196 197 195 191 190 186 187 189 186 185 181 180 182 181 179 182 185 187 186 186 187 186 183 181 178 175 175 174 174 176 177 176 175
222 223 222 222 222 224 226 226 227 227 228 231 232 226 221 220 221 223 224 225 228 228 226 225 222 223 225 226 225 222 220 217 216 213 211 211 209 206 205 206 205 203 201 199 198 196 194 196 196 195 197 199 198 198 196 196 194 188 189 191 189 189 186 182 183 182 180 183 189 190 189 190 191 190 188 185 183 180 179 180 179 182 184 183 184
219 219 218 219 220 221 222 223 226 229 230 233 236 235 229 224 223 223 225 228 230 228 225 221 217 218 223 226 223 218 216 213 212 211 211 212 210 207 207 206 203 202 202 202 202 201 199 198 198 199 201 201 199 197 197 199 196 190 191 193 192 192 191 185 183 183 183 185 190 193 192 192 193 193 192 190 189 186 185 186 186 189 192 192 194
218 217 216 217 218 219 221 223 226 228 230 232 234 237 237 232 229 228 230 234 235 232 224 214 209 210 211 219 223 219 213 208 207 207 208 209 210 212 211 207 204 202 201 200 200 200 199 198 198 201 204 204 202 201 200 197 195 195 193 194 195 193 193 191 187 185 186 189 192 194 194 196 197 197 195 195 193 192 191 191 192 196 197 199 201
219 218 218 219 220 220 221 222 225 227 228 231 234 237 239 237 233 231 231 234 235 234 227 217 211 210 209 211 215 218 219 212 206 204 205 207 208 210 210 207 205 203 200 199 199 199 198 197 198 200 204 205 204 204 200 195 196 200 196 195 197 194 193 195 191 188 190 192 194 196 198 199 200 200 199 198 198 197 196 196 197 199 200 202 204
221 221 221 222 222 223 224 225 226 228 230 233 236 239 240 239 232 227 225 225 224 226 229 224 215 208 203 204 163 204 233 224 210 206 205 207 210 208 207 206 204 202 201 200 199 198 198 198 200 202 204 205 205 204 199 196 199 202 198 196 198 196 194 196 194 190 192 195 196 198 201 202 202 203 202 201 202 202 201 202 201 202 203 204 206
218 219 220 221 222 223 224 227 228 230 232 234 237 238 239 237 230 224 222 221 218 218 222 222 216 211 207 201 160 226 241 201 203 212 204 204 209 209 206 205 203 201 201 202 201 200 199 199 202 204 205 205 204 201 198 199 201 202 201 197 197 198 196 196 196 193 194 198 199 200 203 204 205 206 205 205 206 207 206 206 204 206 207 207 210
216 217 219 219 220 220 221 224 227 228 230 232 235 236 236 236 232 225 223 223 221 215 214 217 218 217 216 216 218 225 200 154 180 221 208 205 206 206 205 205 204 202 201 201 202 201 199 200 202 204 204 205 203 200 199 202 202 202 203 199 196 198 197 197 198 196 197 200 201 203 204 206 207 210 210 209 210 210 210 210 209 209 210 212 214
216 218 218 218 218 219 221 223 226 227 230 231 232 234 235 236 234 231 229 227 223 217 216 219 217 218 221 223 228 235 220 179 186 202 225 221 213 208 207 204 202 202 201 201 201 200 199 200 202 204 204 206 203 200 201 203 203 204 204 201 198 197 197 197 199 200 200 201 203 205 206 208 210 213 214 212 213 215 213 214 213 212 214 216 216
217 217 216 217 218 220 223 224 226 228 230 232 233 234 234 235 234 234 233 230 227 224 224 223 217 219 225 225 231 239 234 219 220 211 195 247 239 228 222 210 204 202 200 201 201 200 200 200 202 202 203 205 204 202 203 203 204 205 204 202 199 197 197 197 199 202 201 201 207 209 208 210 212 214 217 215 215 219 217 216 216 214 216 218 218
217 218 217 218 221 224 225 225 227 228 230 233 235 235 234 235 234 234 235 234 234 232 230 228 224 225 228 228 233 240 242 237 230 221 213 216 224 233 232 225 217 207 203 202 201 201 201 201 202 202 202 204 203 202 203 204 206 206 205 204 201 197 197 198 198 201 203 203 207 212 211 212 214 216 218 217 217 220 220 218 218 216 216 219 219
215 217 219 221 223 226 227 227 228 229 231 233 235 236 237 238 240 241 241 241 239 236 233 233 233 231 230 229 231 236 240 237 226 223 226 229 222 210 210 218 225 211 205 203 201 200 200 199 200 201 201 203 203 201 202 205 207 207 206 206 203 199 198 200 201 202 204 204 206 211 213 212 215 218 219 219 220 222 221 219 219 218 219 220 219
215 216 219 222 224 226 227 228 230 232 233 235 236 238 240 242 245 245 245 245 244 241 237 235 235 235 234 233 231 231 232 231 225 223 226 229 223 210 207 214 225 218 206 201 200 200 199 198 199 201 202 204 205 203 204 206 207 208 209 208 206 203 201 202 203 204 206 207 206 208 213 215 214 218 220 220 221 223 221 220 220 221 220 220 220
216 216 218 220 222 224 225 227 231 233 234 236 237 239 242 244 246 246 247 247 247 244 240 237 236 235 236 238 237 235 234 234 232 227 226 228 226 220 202 205 221 227 205 197 196 197 198 197 198 201 203 204 206 206 207 207 208 209 210 208 208 207 206 204 204 206 209 213 211 206 210 214 214 218 220 220 221 222 221 219 220 222 221 220 220
212 213 215 216 219 221 223 227 230 232 233 235 237 239 242 244 246 247 248 250 251 249 245 243 241 239 240 241 240 238 237 237 235 232 230 230 229 224 194 191 194 197 195 192 190 193 196 196 197 200 203 204 205 207 208 208 208 209 210 210 210 210 210 208 207 209 212 217 217 210 208 210 212 217 219 220 220 220 222 220 219 222 220 220 220
207 208 210 213 217 222 225 227 229 230 232 234 237 239 243 245 247 249 250 252 254 254 252 250 246 244 243 242 241 239 239 238 236 234 232 230 224 207 180 177 177 168 182 187 183 187 196 195 195 198 203 205 206 207 209 208 209 211 212 213 214 213 212 212 211 211 214 219 221 216 212 213 215 217 219 222 222 221 221 220 220 221 218 218 220
204 205 209 213 217 221 224 226 227 230 232 235 238 241 243 245 246 248 251 254 255 255 255 253 250 248 245 243 242 240 240 239 238 236 234 232 225 202 180 160 141 151 174 180 179 189 198 194 192 197 202 206 208 209 210 211 212 214 213 214 215 215 214 216 215 213 216 222 224 222 219 219 221 221 220 221 223 225 223 220 220 220 217 219 220
203 206 211 213 215 217 219 223 226 230 233 236 239 241 242 244 246 249 251 253 255 255 255 254 252 250 248 246 243 239 240 240 239 239 236 236 231 207 188 181 172 162 167 175 185 202 200 192 192 197 202 206 208 210 211 212 214 214 214 214 217 217 217 219 219 217 217 222 227 227 225 225 224 224 223 221 222 225 225 222 219 219 218 219 219
205 208 211 212 213 215 218 223 227 230 233 235 237 239 241 244 247 250 254 256 257 257 256 255 253 250 248 246 243 239 240 239 238 239 237 237 234 215 199 194 190 180 168 182 194 199 197 197 198 200 203 205 207 208 210 212 213 213 214 216 219 220 220 220 222 222 222 223 227 229 231 231 230 229 228 226 225 223 224 223 220 221 221 219 218
207 208 210 210 212 215 219 224 226 228 231 233 236 239 243 248 251 255 257 258 258 258 257 255 253 249 245 244 242 240 240 240 239 240 238 237 233 218 207 203 201 195 183 182 195 193 192 197 203 205 204 203 206 209 211 213 214 213 216 219 222 223 223 223 223 225 227 227 229 231 233 237 237 235 232 232 231 225 225 225 222 222 223 222 223
206 207 208 209 211 215 220 225 227 229 232 234 239 243 248 251 253 255 257 256 254 254 253 252 251 248 244 244 243 242 242 243 244 244 240 236 232 220 208 206 207 206 198 190 195 197 195 196 200 204 205 205 207 209 211 214 216 216 218 221 224 226 226 226 226 227 229 230 231 232 234 238 242 241 238 238 238 232 229 228 225 225 223 224 226
203 205 208 211 214 219 223 226 228 231 234 239 243 247 248 248 248 250 251 249 247 248 250 251 251 247 244 244 245 244 246 248 245 241 235 230 226 220 213 211 213 217 211 199 182 188 197 200 199 199 202 205 207 209 212 214 217 218 221 224 226 226 226 227 229 230 232 232 232 233 235 238 244 246 245 246 246 241 237 232 230 230 224 223 225
202 206 211 215 218 221 223 226 229 234 238 242 244 242 240 241 243 244 244 242 242 246 250 252 251 249 247 247 248 248 248 246 241 234 227 222 219 217 217 215 213 216 212 197 175 158 187 199 202 201 202 204 206 210 213 215 218 220 223 226 227 227 227 229 232 233 234 234 234 235 237 238 243 246 248 251 252 250 246 239 236 235 228 224 224
206 211 215 216 218 221 224 228 233 237 240 240 238 234 234 237 238 238 237 238 244 250 252 251 250 249 248 247 248 248 244 237 231 227 224 220 216 214 214 212 209 211 207 194 178 153 162 184 196 200 202 204 207 212 215 218 220 221 223 226 228 228 229 231 233 236 236 236 236 238 240 241 242 244 246 249 253 255 255 250 245 242 234 229 225
209 213 217 217 218 221 225 230 234 235 235 233 231 230 231 232 233 235 235 238 246 252 250 248 247 246 244 242 243 243 240 232 223 221 221 218 216 215 213 209 207 208 205 199 190 173 164 173 186 194 199 207 213 217 220 221 221 222 224 226 228 229 231 232 235 237 238 238 238 239 242 242 242 243 245 247 250 254 256 256 255 251 242 236 231
211 214 216 217 219 222 225 229 229 227 226 227 229 229 228 228 231 233 235 238 244 249 248 247 246 244 240 237 237 240 239 232 222 217 216 215 217 217 214 210 209 208 207 205 203 195 181 176 187 198 203 210 217 220 221 221 221 223 225 227 229 231 232 233 235 238 240 241 241 242 243 243 243 244 245 247 250 253 255 257 258 256 251 244 237
212 213 214 216 218 220 223 224 223 222 223 224 226 227 226 228 230 232 234 238 242 246 247 247 247 245 240 235 234 235 235 232 225 219 214 212 214 216 214 211 209 209 207 205 205 201 194 188 191 199 205 211 214 217 220 221 220 222 225 228 230 232 234 235 236 239 241 243 243 244 245 245 245 245 246 248 250 252 254 255 256 257 257 251 242
211 212 213 215 215 216 220 220 219 220 222 223 226 227 225 226 229 231 233 238 241 244 246 245 246 245 241 238 234 231 229 228 227 224 217 212 210 211 212 209 207 204 201 200 201 200 200 198 194 194 200 207 210 214 218 221 222 223 224 228 232 234 235 237 238 240 242 244 245 246 247 247 247 247 247 248 250 252 254 255 256 257 259 258 250
211 211 212 212 212 214 218 217 215 218 219 222 227 227 225 225 227 229 232 238 242 245 245 244 244 244 243 240 236 233 230 228 226 224 218 211 208 208 208 204 201 198 195 195 197 197 196 194 192 194 197 202 207 212 216 219 222 225 226 227 231 235 237 239 241 242 243 245 248 249 250 251 250 250 250 251 252 253 255 256 257 256 256 259 255
211 211 209 209 210 215 217 211 212 217 218 222 227 226 225 224 225 228 232 237 240 241 243 244 244 245 244 241 238 236 235 232 229 225 219 212 206 204 204 202 198 195 193 192 193 195 194 190 189 193 194 196 202 208 212 213 214 221 226 226 231 235 238 240 242 244 246 249 251 253 254 254 255 255 255 256 256 257 258 259 258 257 255 255 256
209 209 209 208 210 216 213 206 209 216 217 222 225 226 225 223 223 228 233 236 239 239 239 240 241 243 244 241 239 237 237 235 232 229 225 219 211 206 204 200 196 193 191 191 191 191 190 188 188 189 187 191 197 198 202 207 211 219 223 223 228 235 239 243 246 247 250 252 254 256 257 258 258 260 260 260 261 261 261 261 260 259 257 254 255
205 206 207 208 211 215 208 202 208 214 216 219 221 225 230 228 226 230 233 235 238 238 236 234 234 237 240 242 241 238 237 235 232 229 226 222 217 214 211 205 200 196 192 190 192 191 189 188 190 188 186 191 199 200 205 212 215 219 220 219 223 230 236 244 250 251 251 253 256 259 261 262 262 264 265 266 267 266 265 265 263 261 260 257 255
204 205 206 207 211 213 205 201 206 211 214 215 216 221 229 233 233 233 233 236 238 237 236 232 230 231 233 237 239 237 235 233 230 227 224 220 214 212 212 209 206 205 199 193 191 192 192 192 193 193 192 198 205 207 210 214 215 217 219 219 220 222 224 231 243 252 252 251 253 258 263 266 266 269 271 271 272 270 268 268 266 264 263 259 257
203 205 206 207 210 210 205 203 206 209 211 213 214 217 222 228 233 235 236 239 241 240 236 232 231 230 227 227 230 230 231 231 228 224 220 217 213 211 212 210 209 212 211 206 202 198 197 195 194 198 202 205 209 210 212 216 217 217 218 220 220 220 220 222 229 239 243 239 239 251 265 271 270 275 278 275 274 273 270 271 270 267 264 259 255
203 204 205 208 210 209 206 205 207 208 209 212 213 214 216 219 226 232 234 237 240 241 237 231 229 228 224 220 220 221 224 225 224 221 216 212 209 209 209 208 208 211 213 214 215 214 212 207 203 206 210 211 213 217 221 221 218 213 212 216 220 220 221 224 229 232 233 230 229 245 264 271 271 274 276 275 275 274 275 277 275 272 271 263 256
203 205 206 208 210 210 207 205 206 207 208 210 210 210 211 213 220 228 230 232 237 240 238 232 228 227 223 218 214 213 214 215 216 217 213 208 204 204 205 206 208 210 211 213 216 220 222 221 218 220 221 221 223 228 229 224 222 220 218 220 223 222 223 227 231 233 235 238 237 242 260 267 266 267 271 274 274 274 277 281 281 280 278 268 261
206 208 208 209 211 212 209 206 206 206 206 206 207 207 209 212 217 223 226 229 234 236 236 234 230 228 225 221 216 212 209 209 212 214 213 208 205 204 205 206 208 210 212 214 216 218 220 223 228 233 234 233 234 236 235 231 229 230 230 231 231 228 225 226 228 230 233 236 233 230 245 260 259 259 267 269 270 275 280 282 285 287 277 267 263
207 209 210 212 213 213 210 206 206 207 204 203 204 205 207 211 216 221 223 226 229 232 234 233 230 229 227 223 220 216 213 211 211 212 213 211 208 207 207 207 209 211 213 215 218 220 222 227 232 236 237 236 236 237 238 234 228 225 224 224 223 219 213 210 217 224 227 230 229 226 235 254 258 256 262 267 269 274 281 284 290 292 279 268 257
206 208 211 213 215 215 213 209 208 207 202 201 203 203 203 207 215 221 221 222 225 228 232 233 230 228 227 225 224 221 219 217 215 214 215 214 212 211 210 209 210 213 216 217 218 221 225 228 231 231 230 229 227 229 232 231 226 222 214 206 203 201 196 194 207 219 223 227 229 225 229 246 256 252 254 265 273 277 285 292 296 296 286 264 239
208 210 211 212 214 216 216 214 213 210 205 200 201 202 201 205 214 220 220 220 222 224 227 230 230 228 227 226 226 225 223 222 220 218 217 216 215 215 213 210 210 213 216 216 216 218 220 221 223 224 225 225 222 222 227 229 230 227 220 213 209 201 194 197 205 212 223 233 230 221 217 231 245 241 240 257 279 282 282 287 289 283 246 211 218
210 210 211 212 214 217 218 217 216 215 211 203 199 201 202 204 212 219 220 218 219 221 222 223 224 226 226 225 224 225 227 226 222 219 218 216 216 216 214 209 209 214 217 214 214 215 214 215 216 217 218 220 220 221 225 229 232 233 232 229 221 209 205 208 205 195 211 241 230 217 211 220 233 230 223 225 290 300 278 257 238 217 198 190 193